IW0GZ Weather Reports


time (UTC)temp
C
wind
direction
speed
KPH
gust
KPH
rain 1hr
cm
rain 24hr
cm
rain mn
cm
humidity
%
barometer
mb
20260507083217 20 12 1.6 6.4 0.00 0.69 0.46 71 1016.8
20260507082004 20 257 1.6 4.8 0.00 0.69 0.46 74 1016.8
20260507081003 18 92 1.6 3.2 0.00 0.69 0.46 75 1017.0
20260507080004 18 60 1.6 4.8 0.00 0.69 0.46 77 1017.0
20260507075003 18 67 3.2 6.4 0.00 0.69 0.46 79 1017.0
20260507074004 17 53 3.2 6.4 0.00 0.69 0.46 81 1016.9
20260507073004 17 29 1.6 8.0 0.00 0.69 0.46 83 1017.0
20260507072214 16 344 1.6 8.0 0.00 0.69 0.46 85 1017.1
20260507071003 16 339 3.2 4.8 0.00 0.69 0.46 89 1017.1
20260507070216 16 341 3.2 6.4 0.00 0.69 0.46 91 1017.0
20260507065004 16 337 1.6 4.8 0.00 0.69 0.46 92 1017.0
20260507064004 16 44 3.2 6.4 0.00 0.69 0.46 95 1016.9
20260507063004 15 44 1.6 6.4 0.00 0.69 0.46 95 1016.8
20260507062003 15 33 1.6 4.8 0.00 0.69 0.46 96 1016.7
20260507061003 15 36 1.6 6.4 0.00 0.69 0.46 96 1016.6
20260507060004 14 66 3.2 6.4 0.00 0.69 0.46 96 1016.7
20260507055217 14 57 3.2 8.0 0.00 0.71 0.46 96 1016.7
20260507054003 13 54 1.6 6.4 0.00 0.74 0.46 96 1016.7
20260507053214 13 64 3.2 4.8 0.00 0.76 0.46 96 1016.6
20260507052004 13 80 3.2 4.8 0.00 0.76 0.46 96 1016.6
20260507051004 13 72 3.2 4.8 0.00 0.76 0.46 96 1016.6
20260507050005 13 62 3.2 4.8 0.00 0.76 0.46 96 1016.4
20260507045213 13 57 3.2 6.4 0.00 0.76 0.46 96 1016.4
20260507044003 13 59 0.0 4.8 0.00 0.76 0.46 96 1016.3
20260507043004 13 0 0.0 0.0 0.00 0.76 0.46 96 1016.6
20260507042004 13 75 0.0 1.6 0.00 0.76 0.46 96 1016.6
20260507041004 13 77 1.6 3.2 0.00 0.76 0.46 96 1016.4
20260507040004 13 301 1.6 4.8 0.00 0.76 0.46 96 1016.3
20260507035213 13 281 1.6 4.8 0.00 0.76 0.46 96 1016.3
20260507034004 13 113 0.0 3.2 0.03 0.76 0.46 96 1016.2
20260507033004 13 64 1.6 3.2 0.03 0.76 0.46 96 1016.3
20260507032003 13 77 0.0 4.8 0.03 0.76 0.46 96 1016.2
20260507031003 13 82 0.0 1.6 0.03 0.76 0.46 96 1016.2
20260507030003 13 116 3.2 6.4 0.05 0.76 0.46 96 1016.3
20260507025214 13 127 3.2 6.4 0.05 0.76 0.46 96 1016.2
20260507024003 13 109 4.8 9.7 0.03 0.74 0.43 96 1016.5
20260507023003 13 114 4.8 11.3 0.03 0.74 0.43 95 1016.4
20260507022003 13 133 4.8 9.7 0.05 0.74 0.43 95 1016.3
20260507021003 13 109 4.8 11.3 0.05 0.74 0.43 95 1016.3
20260507020214 13 82 3.2 8.0 0.03 0.71 0.43 95 1016.3
20260507015008 13 53 3.2 4.8 0.05 0.71 0.43 95 1016.4
20260507014003 13 51 3.2 4.8 0.05 0.71 0.43 95 1016.3
20260507013003 13 35 1.6 4.8 0.10 0.71 0.43 95 1016.3
20260507012212 13 53 1.6 3.2 0.18 0.71 0.41 95 1016.3
20260507010004 13 246 0.0 1.6 0.33 0.71 0.41 95 1016.4
20260507005003 13 243 1.6 3.2 0.38 0.71 0.38 95 1016.5
20260507004003 13 242 3.2 8.0 0.36 0.71 0.36 94 1016.5
20260507003004 13 256 6.4 9.7 0.33 0.66 0.33 93 1016.6
20260507002004 13 260 4.8 11.3 0.20 0.53 0.20 92 1016.4
20260507001003 14 257 6.4 9.7 0.13 0.46 0.13 91 1016.4
20260507000004 14 254 6.4 12.9 0.05 0.41 0.05 90 1016.4
20260506235003 14 256 4.8 8.0 0.00 0.33 0.00 89 1016.4
20260506234004 15 249 4.8 11.3 0.00 0.33 0.00 89 1016.4
20260506233004 15 256 4.8 9.7 0.00 0.33 0.00 88 1016.2
20260506232003 15 227 3.2 11.3 0.00 0.33 0.00 86 1016.2
20260506230004 15 248 3.2 6.4 0.00 0.33 0.00 88 1016.1
20260506225216 15 241 1.6 6.4 0.03 0.33 0.00 88 1016.0
20260506224003 15 238 3.2 6.4 0.05 0.33 0.00 90 1016.0
20260506223003 15 260 1.6 4.8 0.05 0.33 0.00 89 1016.2
20260506222003 15 253 0.0 4.8 0.08 0.33 0.00 87 1016.2
20260506221215 15 157 3.2 6.4 0.10 0.33 0.00 85 1016.1
20260506220006 15 146 4.8 9.7 0.13 0.33 0.00 84 1016.0
20260506215217 15 152 4.8 11.3 0.13 0.33 0.33 84 1016.2
20260506214003 15 154 3.2 9.7 0.10 0.30 0.30 85 1016.3
20260506213003 15 215 3.2 8.0 0.10 0.28 0.28 86 1016.5
20260506212003 15 257 3.2 6.4 0.08 0.25 0.25 86 1016.5
20260506211004 16 207 4.8 8.0 0.05 0.23 0.23 83 1016.5
20260506210004 16 160 4.8 9.7 0.05 0.23 0.23 81 1016.5
20260506205003 16 151 4.8 11.3 0.03 0.20 0.20 81 1016.5
20260506204003 16 137 6.4 12.9 0.03 0.20 0.20 80 1016.6
20260506203004 16 150 6.4 11.3 0.00 0.18 0.18 79 1016.5
20260506202215 16 146 4.8 11.3 0.00 0.18 0.18 78 1016.6
20260506201003 16 145 6.4 11.3 0.00 0.18 0.18 78 1016.4
20260506200004 16 135 4.8 11.3 0.00 0.18 0.18 78 1016.4
20260506195003 16 126 3.2 8.0 0.00 0.18 0.18 79 1016.3
20260506194004 16 120 3.2 6.4 0.00 0.18 0.18 81 1016.3
20260506193215 16 110 1.6 9.7 0.00 0.18 0.18 84 1016.3
20260506192004 16 89 1.6 6.4 0.00 0.18 0.18 88 1016.2
20260506191003 16 112 1.6 4.8 0.00 0.18 0.18 89 1016.3
20260506190004 15 70 0.0 4.8 0.00 0.18 0.18 91 1016.1
20260506185004 16 82 0.0 1.6 0.00 0.18 0.18 89 1016.1
20260506184004 16 129 0.0 1.6 0.05 0.18 0.18 89 1015.9
20260506183004 16 127 0.0 1.6 0.05 0.18 0.18 89 1015.8
20260506182216 16 253 1.6 3.2 0.05 0.18 0.18 88 1015.8
20260506181003 16 241 3.2 6.4 0.05 0.18 0.18 87 1015.8
20260506180005 16 233 4.8 8.0 0.05 0.18 0.18 86 1015.8
20260506175004 16 230 4.8 12.9 0.05 0.18 0.18 85 1015.6
20260506174004 17 214 6.4 11.3 0.03 0.15 0.15 82 1015.6
20260506173003 17 224 8.0 19.3 0.00 0.13 0.13 81 1015.5
20260506172003 17 228 6.4 14.5 0.00 0.13 0.13 81 1015.4
20260506171003 17 226 4.8 19.3 0.00 0.13 0.13 81 1015.5
20260506170214 17 232 3.2 11.3 0.00 0.13 0.13 81 1015.4
20260506165004 17 228 4.8 8.0 0.00 0.13 0.13 82 1015.6
20260506164003 17 231 6.4 14.5 0.00 0.13 0.13 80 1015.5
20260506163003 18 221 4.8 16.1 0.00 0.13 0.13 77 1015.6
20260506162004 18 175 4.8 17.7 0.00 0.13 0.13 72 1015.4
20260506161004 18 173 3.2 9.7 0.00 0.13 0.13 71 1015.4
20260506160003 18 200 4.8 12.9 0.00 0.13 0.13 71 1015.5
20260506155216 18 213 6.4 14.5 0.00 0.13 0.13 71 1015.6
20260506154003 18 229 4.8 17.7 0.00 0.13 0.13 70 1015.5
20260506153004 18 224 6.4 14.5 0.00 0.13 0.13 69 1015.6
20260506152213 18 227 6.4 17.7 0.00 0.13 0.13 69 1015.5
20260506151004 19 229 8.0 20.9 0.00 0.13 0.13 70 1015.4
20260506150004 19 217 8.0 19.3 0.00 0.13 0.13 69 1015.5
20260506145003 19 219 8.0 17.7 0.00 0.13 0.13 70 1015.6
20260506144004 19 229 9.7 25.7 0.00 0.13 0.13 70 1015.5
20260506143213 19 229 9.7 24.1 0.00 0.13 0.13 69 1015.6
20260506142003 19 227 8.0 29.0 0.00 0.13 0.13 68 1015.6
20260506141003 20 232 8.0 17.7 0.00 0.13 0.13 68 1015.5
20260506140003 20 231 8.0 24.1 0.00 0.13 0.13 68 1015.5
20260506135004 20 232 8.0 22.5 0.00 0.13 0.13 66 1015.4
20260506134003 20 225 9.7 22.5 0.00 0.13 0.13 66 1015.5
20260506133004 20 231 8.0 22.5 0.00 0.13 0.13 64 1015.5
20260506132003 20 233 8.0 17.7 0.00 0.13 0.13 64 1015.5
20260506131003 21 231 8.0 19.3 0.00 0.13 0.13 63 1015.7
20260506130004 21 231 6.4 19.3 0.00 0.13 0.13 62 1015.6
20260506125003 21 221 8.0 19.3 0.00 0.13 0.13 63 1015.7
20260506124004 21 228 8.0 20.9 0.00 0.13 0.13 59 1015.8
20260506123003 21 232 8.0 19.3 0.00 0.13 0.13 58 1015.8
20260506122003 22 210 6.4 20.9 0.00 0.13 0.13 56 1015.8
20260506121004 22 173 6.4 19.3 0.00 0.13 0.13 55 1015.7
20260506120217 22 169 6.4 17.7 0.00 0.13 0.13 53 1015.8
20260506115003 22 216 8.0 19.3 0.00 0.13 0.13 53 1016.0
20260506114003 21 214 8.0 20.9 0.00 0.13 0.13 53 1016.0
20260506113215 21 217 8.0 20.9 0.00 0.13 0.13 53 1015.9
20260506112004 21 230 9.7 22.5 0.00 0.13 0.13 55 1015.9
20260506111003 21 220 6.4 22.5 0.00 0.13 0.13 55 1015.8
20260506110004 21 158 8.0 27.4 0.00 0.13 0.13 57 1016.0
20260506105003 21 153 6.4 17.7 0.00 0.13 0.13 61 1016.0
20260506104004 21 175 9.7 25.7 0.00 0.13 0.13 63 1016.1
20260506103004 20 151 9.7 22.5 0.00 0.13 0.13 65 1016.1
20260506102004 20 147 11.3 20.9 0.00 0.13 0.13 67 1016.0
20260506101004 19 143 12.9 24.1 0.00 0.13 0.13 69 1016.2
20260506100213 19 141 12.9 22.5 0.00 0.13 0.13 69 1016.2
20260506095004 19 144 14.5 30.6 0.00 0.13 0.13 70 1016.1
20260506094004 18 145 11.3 25.7 0.00 0.13 0.13 71 1016.0
20260506093003 18 147 8.0 20.9 0.00 0.13 0.13 72 1016.0
20260506092003 18 139 8.0 17.7 0.00 0.13 0.13 74 1016.0
20260506091003 17 138 9.7 17.7 0.00 0.13 0.13 76 1015.9
20260506090004 17 140 9.7 22.5 0.00 0.13 0.13 76 1015.8
20260506085003 17 142 8.0 19.3 0.00 0.13 0.13 74 1015.7
20260506084216 18 141 8.0 17.7 0.00 0.13 0.13 75 1015.8